Regional Weather Roundup
Issued by NWS

Home | Current Version | Previous Version | Graphics & Text | Print | Product List | Glossary On
Versions: 1 2 3 4 5 6 7 8 9 10 11 12 13 14 15 16 17 18 19 20 21 22 23 24 25 26 27 28 29 30 31 32 33 34 35 36 37 38 39 40 41 42 43 44 45 46 47 48 49 50
000
ASUS43 KMKX 280700
RWRWI

WISCONSIN REGIONAL WEATHER ROUNDUP
NATIONAL WEATHER SERVICE MILWAUKEE/SULLIVAN WI
200 AM CDT SUN AUG 28 2016

NOTE: "FAIR" INDICATES FEW OR NO CLOUDS BELOW 12,000 FEET WITH NO
SIGNIFICANT WEATHER AND/OR OBSTRUCTIONS TO VISIBILITY.

WIZ001-002-006>008-014>016-023>028-280800-
NORTHWEST WISCONSIN

CITY           SKY/WX    TMP DP  RH WIND       PRES   REMARKS
SUPERIOR ARPT  FOG       55  55 100 CALM      30.08R VSB 3/4
ASHLAND        MOCLDY    59  59 100 S3        30.08S
HAYWARD        CLOUDY    62  60  93 CALM      30.10S
SIREN          CLOUDY    59  58  97 CALM      30.10R FOG
CUMBERLAND     FOG       59  57  94 CALM      30.11R VSB<1/4
RICE LAKE      FOG       58  56  96 CALM      30.12R VSB<1/4
CHETEK         NOT AVBL
LADYSMITH      CLOUDY    64  63  96 SW3       30.12R
EAU CLAIRE     FOG       62  62 100 CALM      30.09R VSB 3/4
MENOMONIE      FOG       64  64  99 W3        30.11R VSB 1
NEW RICHMOND   FOG       62  62 100 CALM      30.11R VSB 1/2
OSCEOLA        FOG       58  58 100 CALM      30.13R VSB<1/4
$$

WIZ003>005-009-010-017-018-280800-
NORTH CENTRAL WISCONSIN

CITY           SKY/WX    TMP DP  RH WIND       PRES   REMARKS
MANITOWISH WTR NOT AVBL
ARBOR VITAE    CLOUDY    62  61  96 SW3       30.10R
WOODRUFF       CLOUDY    62  61  96 SW3       30.10R
RHINELANDER    CLOUDY    63  63 100 SW7       30.11R FOG
EAGLE RIVER    DRIZZLE   62  62 100 W5        30.09S
LAND O LAKES   RAIN      62  62  99 SW5       30.10S
PHILLIPS       CLOUDY    62  62 100 CALM      30.11R
TOMAHAWK       CLOUDY    62  61  96 CALM      30.11S
MEDFORD        CLOUDY    62  62 100 W3        30.11R FOG
MERRILL        CLOUDY    64  64 100 W3        30.11S
$$

WIZ029-030-035-036-043>047-280800-
CENTRAL WISCONSIN

CITY           SKY/WX    TMP DP  RH WIND       PRES   REMARKS
WAUSAU         CLOUDY    64  62  93 SW5       30.09S
MOSINEE        CLOUDY    63  63 100 W8        30.12R FOG
MARSHFIELD     CLOUDY    65  62  90 W7        30.11R FOG
STEVENS POINT  CLOUDY    62  62 100 SW5       30.11S FOG
WAUPACA        FOG       64  64  97 SW3       30.11S VSB 1/4
WAUTOMA        FOG       64  64 100 SW3       30.12S VSB 1/2
WISC RAPIDS    CLOUDY    65  65 100 W8        30.12R FOG
CAMP DOUGLAS   CLOUDY    66  66 100 SW5       30.11S
$$

WIZ011>013-019>022-031-037>040-048>050-280800-
NORTHEAST WISCONSIN

CITY           SKY/WX    TMP DP  RH WIND       PRES   REMARKS
ANTIGO         CLOUDY    62  62 100 SW6       30.11R FOG
SHAWANO        CLOUDY    65  63  93 SW6       30.10R FOG
OCONTO         NOT AVBL
STURGEON BAY   PTCLDY    64  63  96 W5        30.09S
GREEN BAY      FOG       62  62 100 W3        30.09R VSB 1/4
MANITOWOC      NOT AVBL
APPLETON       FOG       61  61 100 SW7       30.09S VSB 1/4
CLINTONVILLE   FOG       63  61  94 W6        30.10S VSB 3/4
OSHKOSH        FOG       64  63  96 SW3       30.10S VSB 1/4
$$

WIZ032>034-041-042-053>061-280800-
SOUTHWEST WISCONSIN

CITY           SKY/WX    TMP DP  RH WIND       PRES   REMARKS
LA CROSSE      CLOUDY    68  68 100 S6        30.11R FOG
SPARTA         CLOUDY    64  64 100 CALM      30.12S FOG
VIROQUA        CLOUDY    62  62 100 CALM      30.13S VSB 1/4
BOSCOBEL       FOG       65  64  97 CALM      30.12S VSB 1/4
PRAIRIE DU CHI FOG       64  63  96 CALM      30.12R VSB 1/2
PLATTEVILLE    CLEAR     66  66 100 SE5       30.12F
$$

WIZ056-057-062-063-064-067-068-280800-
SOUTH CENTRAL WISCONSIN

CITY           SKY/WX    TMP DP  RH WIND       PRES   REMARKS
REEDSBURG      NOT AVBL
BARABOO/DELLS  FOG       61  60  96 CALM      30.12S VSB<1/4
LONE ROCK      NOT AVBL
MINERAL POINT  FOG       64  64 100 CALM      30.12S VSB 1/2
MADISON        FOG       62  62 100 CALM      30.11R VSB 1/4
MIDDLETON      CLOUDY    62  62 100 CALM      30.12S VSB 1/4
WATERTOWN      FOG       64  64 100 CALM      30.11S VSB 1/2
MONROE         CLEAR     68  66  94 CALM      30.12S
JANESVILLE     CLEAR     68  66  94 CALM      30.10F
$$

WIZ051-052-058>065-066-070>072-280800-
SOUTHEAST WISCONSIN

CITY           SKY/WX    TMP DP  RH WIND       PRES   REMARKS
MILWAUKEE      MOCLDY    66  64  93 CALM      30.10S
WAUKESHA       PTCLDY    63  63 100 CALM      30.12F FOG
MILWAUKEE/TIMM PTCLDY    66  63  88 CALM      30.11S
RACINE         CLOUDY    67  65  93 CALM      30.12S
BURLINGTON     CLOUDY    64  63  99 CALM      30.11F FOG
KENOSHA        CLOUDY    71  68  90 NW5       30.11S
FOND DU LAC    CLOUDY    65  64  97 CALM      30.11S
SHEBOYGAN      PTCLDY    63  61  93 CALM      30.10R FOG
WEST BEND      FOG       63  61  94 CALM      30.10S VSB 1
JUNEAU         FOG       64  64  99 CALM      30.12S VSB 1/2
$$

LSZ147-162-280800-
LAKE SUPERIOR

STATION/POSITION TIME  TEMP    WIND        PRES    WAVE
                       AIR SEA DIR/SP/G            HT/PER
                 (UTC) (F)     (DEG/KT/KT) (MB)    (FT/S)
W MID LAKE BUOY  0550   63 67   20/  4/  4 1017.3F   1/ 3
DEVILS ISLAND    0600   62     220/  2/  2 1017.9F
PORT WING        0600   61     170/  3/  3 1018.3
SAXON HARBOR     0600   63     210/  5/  6 1017.9R
$$

LMZ867-665-643>646-280800-
LAKE MICHIGAN

STATION/POSITION TIME  TEMP    WIND        PRES    WAVE
                       AIR SEA DIR/SP/G            HT/PER
                 (UTC) (F)     (DEG/KT/KT) (MB)    (FT/S)
CHAMBERS ISLAND  0600   66     240/  3/  9 1018.3S
S GREEN BAY BUOY 0600   67 71  240/ 10/ 10 1018.1
N MID LAKE BUOY  0550   67 70  250/ 10/ 12 1017.1S   1
NORTHPORT PIER   0600   65     250/  1/  4 1018.3R
SISTER BAY       0607   67     250/ 14/ 16   N/A
KEWAUNEE LAKESHO 0600   64     260/  3/  4 1018.3F
SHEBOYGAN LAKESH 0600   65     250/  4/  5 1018.7F
PORT WASHINGTON  0640   62     170/  1/  2 1020.0R
ATWATER BUOY     0600   64      70/  2/  4   N/A
MILWAUKEE LAKESH 0610   63      30/  2/  3   N/A
S MID LAKE BUOY  0550   75 75  260/ 10/ 12 1018.2R   1
KENOSHA   LAKESH 0600   73     320/  9/ 10 1018.6S
$$

TC  - TEMPERATURE IN CELSIUS
VSB - VISIBILITY IN STATUTE MILES
WCI - WIND CHILL INDEX
HX  - HEAT INDEX





USA.gov is the U.S. government's official web portal to all federal, state and local government web resources and services.